Temperature
13 13 13 12 12 12 12 12 12 12 12 12 12 12 13 13 13 13 12 12 12 12 11 11 11 11 11 11 11 11 11 11 11 11 11 11 11 11 11 11 11 11 11
13 13 12 12 12 12 12 12 12 12 12 12 13 13 13 13 12 12 12 12 11 11 11 11 10 10 10 10 10 10 10 10 10 10 10 10 11 11 11 11 11 11 11
13 12 12 12 12 12 12 12 12 12 12 12 12 12 12 12 11 11 11 10 10 10 10 10 10 10 10 10 10 10 10 10 10 10 10 10 10 10 10 10 11 11 11
12 12 12 12 12 12 12 12 12 12 12 11 11 11 11 11 11 10 10 9 9 9 10 10 10 10 10 10 10 10 9 9 9 9 9 9 9 9 9 9 9 10 10
12 12 12 12 12 12 12 11 11 11 10 10 10 10 10 10 10 10 9 9 9 9 9 9 9 9 9 9 9 9 8 8 8 8 8 8 8 8 8 8 8 8 9
12 12 12 11 11 11 11 10 10 9 9 8 8 9 9 9 9 9 8 8 9 8 8 8 8 8 8 8 8 7 7 7 6 6 6 6 6 6 6 7 7 7 8
12 11 11 11 11 10 10 9 9 8 8 7 7 7 8 8 8 8 8 8 8 7 7 6 6 6 6 6 6 5 5 5 4 4 4 4 4 5 5 5 6 6 6
11 11 11 10 10 9 9 8 7 7 6 6 5 5 5 6 6 6 6 6 6 6 6 5 5 5 4 4 4 4 4 3 2 2 2 2 3 3 4 4 5 5 6
11 11 10 10 9 8 7 7 6 6 5 5 4 3 3 2 2 4 3 4 4 4 4 4 4 3 2 2 2 1 1 1 0 0 1 1 2 2 2 3 3 4 4
10 10 9 9 8 7 6 5 5 5 4 4 4 3 2 1 0 0 1 3 3 2 2 2 1 1 1 0 -1 -1 -1 -1 -1 -1 -1 -0 0 1 1 2 2 3 3
9 9 9 8 7 6 5 5 4 4 4 3 3 2 2 1 -0 -2 -2 -1 -0 1 1 1 0 0 -1 -2 -2 -2 -3 -3 -3 -2 -2 -1 -1 -0 0 0 1 1 1
9 8 8 7 6 5 4 4 4 3 3 2 2 1 1 -1 -1 -2 -3 -3 -3 -3 -2 -1 -1 -1 -2 -3 -3 -3 -4 -4 -3 -3 -3 -2 -2 -1 -1 -1 -1 -1 -0
8 8 7 6 5 4 4 3 3 3 2 2 1 1 -0 -1 -2 -2 -3 -4 -4 -4 -4 -4 -3 -4 -4 -4 -4 -5 -5 -5 -5 -4 -4 -3 -3 -3 -3 -2 -2 -2 -1
7 7 6 5 4 3 3 3 2 2 2 1 1 0 -1 -1 -2 -3 -4 -5 -5 -5 -5 -4 -4 -5 -5 -5 -6 -6 -6 -6 -6 -5 -5 -4 -4 -4 -4 -3 -3 -3 -2
7 6 5 4 3 3 3 2 2 1 1 1 0 -1 -2 -2 -3 -3 -4 -5 -6 -6 -6 -5 -6 -6 -6 -6 -6 -6 -6 -6 -6 -6 -6 -5 -5 -5 -4 -4 -4 -3 -3
6 5 4 3 3 2 2 1 1 0 0 -0 -1 -2 -3 -3 -3 -3 -4 -5 -6 -7 -7 -6 -6 -6 -6 -7 -7 -7 -7 -7 -7 -7 -6 -6 -6 -5 -5 -5 -4 -4 -4
5 4 3 3 2 2 1 1 -0 -1 -1 -2 -2 -3 -4 -4 -4 -5 -5 -6 -7 -7 -7 -7 -7 -7 -7 -7 -7 -7 -7 -7 -8 -7 -7 -7 -6 -6 -6 -5 -5 -5 -5
4 3 2 2 1 1 0 -0 -1 -2 -2 -3 -3 -4 -5 -5 -5 -6 -6 -7 -7 -7 -8 -7 -7 -7 -7 -7 -7 -7 -8 -8 -8 -8 -8 -7 -7 -7 -7 -6 -6 -6 -6
3 2 2 1 1 0 -0 -1 -2 -3 -3 -4 -5 -5 -6 -6 -7 -7 -7 -8 -8 -8 -8 -8 -8 -8 -7 -7 -8 -8 -8 -9 -9 -9 -9 -8 -8 -8 -8 -7 -7 -7 -7
2 2 1 0 -0 -1 -1 -1 -2 -3 -4 -5 -5 -6 -7 -7 -7 -8 -8 -8 -8 -8 -8 -8 -8 -8 -8 -8 -8 -9 -9 -9 -9 -9 -9 -9 -9 -9 -8 -8 -8 -8 -8
1 1 0 -0 -1 -1 -2 -2 -4 -4 -5 -6 -6 -7 -7 -8 -8 -8 -8 -8 -8 -8 -8 -8 -8 -8 -8 -9 -9 -9 -9 -9 -9 -9 -9 -9 -10 -10 -10 -9 -9 -9 -8
1 0 -0 -1 -1 -2 -2 -3 -5 -5 -6 -6 -7 -7 -8 -8 -9 -8 -9 -9 -8 -8 -8 -8 -8 -9 -9 -9 -9 -10 -10 -10 -10 -10 -10 -10 -10 -10 -10 -10 -9 -9 -8
0 -0 -1 -2 -2 -2 -3 -4 -5 -6 -6 -7 -7 -8 -8 -9 -9 -9 -9 -9 -9 -9 -9 -9 -9 -9 -10 -10 -10 -10 -10 -10 -10 -10 -11 -10 -10 -10 -10 -10 -9 -9 -9
-1 -1 -2 -3 -3 -4 -4 -5 -6 -7 -7 -8 -8 -9 -9 -9 -9 -9 -9 -9 -9 -9 -9 -10 -10 -10 -10 -10 -10 -10 -10 -11 -11 -11 -11 -11 -11 -10 -10 -9 -8 -8 -8
-1 -2 -3 -3 -4 -5 -5 -7 -8 -8 -8 -8 -8 -9 -9 -9 -9 -9 -9 -9 -9 -10 -10 -10 -10 -10 -10 -10 -11 -11 -11 -11 -11 -11 -10 -11 -10 -10 -10 -9 -8 -8 -8
-2 -3 -3 -4 -5 -6 -7 -8 -8 -9 -9 -8 -9 -9 -9 -10 -9 -9 -9 -10 -10 -10 -10 -10 -10 -9 -10 -10 -11 -11 -11 -12 -12 -11 -10 -11 -11 -11 -10 -9 -9 -9 -9
Wind_Speed
4 2 2 2 3 3 3 3 3 4 5 6 7 6 5 7 8 9 11 15 17 17 17 17 17 16 16 17 17 18 18 18 19 19 20 22 24 27 30 31 32 32 33
4 4 4 4 5 7 7 6 5 5 5 5 7 6 6 7 9 11 12 12 14 16 18 18 19 20 20 20 20 20 20 20 20 21 21 22 22 23 25 28 31 33 34
9 6 6 6 5 9 9 7 7 5 6 7 8 8 6 6 7 8 9 9 11 14 18 20 21 22 21 22 22 22 22 23 23 23 23 23 23 22 23 24 25 28 31
14 9 7 6 7 9 6 5 6 5 6 7 7 7 6 6 6 6 7 8 10 11 15 20 22 22 22 23 23 23 23 24 24 25 25 25 25 25 24 23 23 24 25
15 11 6 5 8 6 6 5 5 4 5 7 7 6 7 6 5 4 6 7 8 10 12 17 21 23 23 23 24 25 25 25 26 26 26 27 27 27 26 26 25 24 24
14 11 6 7 7 6 6 5 5 4 3 5 6 7 7 5 3 4 6 5 8 12 15 17 18 21 23 24 25 26 27 27 27 27 27 27 27 28 28 27 27 27 26
14 11 6 6 6 6 6 6 4 5 4 5 4 5 6 5 4 5 7 6 7 11 15 17 17 16 15 22 25 28 28 27 28 28 28 28 28 29 29 28 28 28 28
13 10 7 6 6 5 7 7 6 4 3 4 3 3 5 6 5 8 6 5 7 7 9 14 14 13 13 15 22 27 27 28 28 29 29 29 29 30 30 30 30 30 29
13 11 8 6 6 6 5 5 5 4 3 3 3 2 3 4 5 4 4 4 7 7 7 7 10 12 17 16 17 20 25 28 29 30 31 31 31 31 31 32 32 32 31
11 11 9 7 5 5 5 4 4 3 3 3 3 2 1 4 4 6 5 5 7 8 8 10 8 10 15 15 17 21 25 28 31 32 32 32 32 32 32 32 33 33 33
8 9 8 6 5 4 4 4 4 4 3 3 3 3 3 3 5 5 9 7 8 7 7 8 7 6 12 13 11 18 28 30 31 32 32 32 32 32 32 32 33 33 33
5 6 6 5 4 3 4 4 4 5 4 4 4 3 3 3 5 5 9 13 11 7 8 8 8 8 8 10 15 26 30 31 32 32 33 33 33 33 33 33 33 33 34
2 3 3 3 3 3 4 4 4 5 4 5 5 4 4 4 5 7 11 16 17 10 6 6 7 7 9 10 14 26 28 30 31 33 34 35 35 35 34 34 34 33 33
2 2 3 3 4 5 5 4 4 4 4 5 7 6 4 5 5 6 9 14 17 11 7 7 5 6 6 9 16 26 20 28 31 33 35 36 36 35 35 34 34 33 32
2 3 3 4 4 5 5 5 4 6 6 5 6 5 4 5 6 7 7 8 11 18 19 9 6 6 6 8 18 17 15 26 33 34 35 36 35 35 35 34 33 33 34
3 3 4 4 5 5 5 5 6 7 6 6 4 6 6 6 7 7 7 8 9 14 18 13 11 9 10 14 21 16 15 30 31 33 35 35 35 34 34 34 35 35 35
3 4 4 5 6 6 6 6 7 8 7 7 6 7 8 8 8 8 8 9 9 11 17 20 15 12 11 12 13 9 13 11 15 30 33 34 34 34 35 36 36 37 37
3 4 5 6 7 7 7 8 9 9 8 8 8 8 8 10 10 10 9 10 11 11 15 21 19 15 14 13 13 11 14 15 12 27 32 33 34 35 36 37 37 37 37
4 5 5 6 7 8 8 8 8 8 8 8 8 8 9 10 12 11 12 13 12 13 12 17 20 17 15 12 13 15 15 12 17 21 27 30 32 34 35 36 36 36 36
4 6 6 7 7 8 9 8 8 9 9 8 8 8 9 10 12 13 13 12 13 14 14 16 17 16 15 12 12 15 17 11 13 16 21 24 28 32 33 34 35 35 35
5 6 6 7 8 8 9 11 9 9 9 9 8 8 10 16 21 18 17 15 16 16 16 16 17 17 16 14 15 15 19 17 14 12 13 14 15 14 17 26 30 33 34
5 6 7 7 8 10 17 21 17 10 9 9 9 9 11 15 20 26 29 28 26 21 19 18 17 18 19 17 16 17 19 20 18 9 11 16 13 16 15 14 26 34 35
5 6 7 8 8 11 20 21 22 13 9 9 10 11 14 16 20 14 22 27 24 28 27 20 19 19 20 19 20 21 19 20 20 16 16 19 14 16 15 19 32 34 36
5 5 7 8 8 11 20 21 23 11 9 10 10 11 12 13 16 21 19 18 16 15 18 16 15 17 17 17 17 19 20 19 18 14 13 18 16 17 18 16 29 34 35
6 6 7 8 8 11 18 21 22 10 10 11 10 10 14 13 25 31 22 19 16 14 21 26 26 25 30 30 24 16 15 15 17 16 11 12 16 17 17 17 21 30 32
6 7 7 8 8 9 16 21 22 8 10 11 9 10 18 23 28 30 19 14 16 18 17 17 19 22 19 20 24 16 14 15 16 14 9 8 14 13 12 10 10 12 17
Wind_Direction
146 123 99 67 35 26 25 22 14 11 9 3 1 354 340 341 341 341 337 338 343 347 347 341 336 334 333 330 326 322 318 313 308 304 299 291 280 270 263 258 256 254 251
113 93 71 55 44 42 45 45 31 26 16 3 357 347 340 346 346 346 345 353 4 14 19 19 15 10 3 357 350 345 340 336 331 326 319 312 305 297 286 274 265 259 255
89 81 69 56 43 46 47 44 28 28 20 7 350 341 339 344 344 343 352 8 12 18 20 18 13 7 1 356 350 346 342 340 337 333 329 324 318 311 304 298 289 279 269
86 80 72 59 51 49 40 40 25 19 13 359 340 327 329 332 337 348 9 11 10 14 16 14 9 2 357 351 347 343 339 336 333 329 325 320 316 312 307 303 299 295 290
85 83 73 60 57 50 37 33 30 23 7 351 329 316 318 323 329 4 6 4 8 14 15 7 3 357 354 350 347 343 338 333 329 325 321 317 313 309 305 302 300 298 296
80 79 71 56 55 51 36 26 19 13 3 342 324 314 305 308 325 360 359 358 5 10 9 2 358 351 350 348 344 338 333 329 325 321 318 315 312 308 303 299 296 294 292
72 70 66 54 50 54 43 28 13 6 353 349 342 319 314 328 347 334 350 355 2 3 357 352 347 340 341 342 339 333 329 326 323 319 315 313 310 307 303 299 295 291 289
68 70 65 61 52 52 41 33 27 10 344 2 348 323 332 331 341 332 318 341 357 350 338 335 329 328 333 333 329 327 326 323 320 316 313 309 306 303 301 298 295 293 290
70 68 65 63 54 52 40 26 27 26 343 327 349 35 0 312 310 298 316 343 336 320 318 321 315 322 321 321 318 320 321 320 316 313 310 307 304 302 298 296 294 292 290
70 66 64 60 52 46 34 11 22 2 348 334 332 22 246 251 293 309 306 306 304 308 301 305 304 301 303 304 307 317 318 317 313 309 306 304 301 299 297 295 293 291 290
63 63 60 54 42 31 19 7 358 353 344 326 320 310 295 269 240 266 295 303 305 295 292 287 287 286 294 297 299 311 317 313 309 306 304 301 299 297 295 294 293 292 290
54 48 53 46 33 16 359 350 345 343 335 329 319 310 307 302 306 292 299 306 302 292 284 281 286 289 292 300 309 315 312 309 307 304 302 300 298 296 295 294 293 290 289
67 39 41 31 14 351 345 347 343 333 328 329 315 302 295 288 296 304 309 309 307 300 268 257 260 273 293 299 304 306 305 305 304 302 300 298 296 296 294 292 289 287 287
121 67 40 20 2 353 349 346 334 321 323 317 317 310 302 300 302 303 305 310 311 304 290 276 261 254 268 275 287 300 299 299 299 299 297 295 294 292 290 288 286 285 286
101 56 29 8 353 346 339 334 316 305 304 300 299 299 300 295 297 294 295 298 303 307 306 297 290 262 264 272 287 292 284 293 297 297 296 294 291 288 286 285 285 285 286
62 35 11 356 344 334 324 315 303 296 296 296 291 297 298 298 299 296 294 293 289 293 298 300 301 289 283 293 295 292 286 294 297 297 295 294 291 289 287 286 285 285 285
47 18 354 341 330 319 312 305 298 297 295 293 293 300 296 301 304 304 298 294 290 289 294 300 301 299 287 284 288 272 279 278 286 294 295 294 293 292 290 289 287 286 285
23 355 338 328 320 314 307 301 298 304 295 290 288 291 296 311 307 304 300 295 293 287 289 297 302 303 297 293 293 289 298 297 290 293 293 293 292 292 291 289 288 286 284
357 339 331 323 316 311 306 299 292 291 286 283 283 285 292 302 304 303 299 296 294 295 292 296 299 300 298 299 300 299 295 289 291 293 293 292 291 290 289 288 287 286 284
344 335 330 322 316 312 304 298 297 294 290 284 279 278 285 294 298 300 301 296 301 302 298 296 297 299 300 299 299 304 304 293 292 293 290 288 289 290 289 288 287 286 284
345 336 331 326 323 319 317 321 315 309 303 296 287 282 289 305 309 309 308 309 307 303 303 303 302 303 304 307 306 305 302 302 292 286 287 285 286 282 283 283 283 282 280
341 340 334 325 323 331 330 332 332 320 313 309 306 302 300 305 307 313 312 308 307 307 307 305 305 304 305 305 304 302 303 303 301 293 287 292 288 285 282 277 279 280 279
336 331 325 320 315 320 335 335 333 335 329 318 309 307 311 313 315 302 302 308 307 305 305 305 303 303 303 304 304 304 302 300 298 301 299 294 290 286 284 282 284 283 282
325 317 310 309 311 322 336 335 334 339 318 306 300 298 299 303 308 311 310 310 306 305 304 303 297 299 302 303 301 302 301 299 295 292 289 291 293 289 288 283 284 281 280
315 305 302 305 309 315 329 331 331 314 308 303 297 298 308 307 309 315 318 316 316 311 311 310 310 310 309 309 308 307 305 304 301 299 292 286 290 292 289 284 280 280 279
298 301 302 303 302 302 318 328 328 311 310 310 306 300 313 317 316 322 324 323 319 314 317 319 315 311 306 304 308 307 302 299 298 299 292 285 293 300 298 275 266 273 277
Height
1505 1505 1505 1505 1504 1503 1502 1500 1499 1498 1497 1495 1494 1492 1491 1489 1487 1484 1482 1480 1478 1475 1473 1472 1470 1469 1468 1467 1465 1464 1462 1461 1460 1458 1457 1456 1455 1455 1454 1454 1454 1455 1455
1505 1505 1504 1503 1502 1501 1500 1499 1497 1496 1494 1493 1491 1490 1488 1485 1483 1480 1478 1476 1474 1472 1470 1468 1466 1464 1463 1461 1460 1458 1457 1455 1454 1452 1451 1449 1448 1447 1446 1446 1446 1446 1446
1503 1503 1503 1502 1501 1500 1499 1498 1496 1494 1492 1490 1488 1486 1483 1481 1478 1476 1473 1471 1470 1468 1466 1464 1463 1461 1459 1457 1455 1453 1451 1449 1447 1446 1444 1442 1441 1440 1439 1438 1437 1437 1437
1502 1502 1502 1501 1500 1499 1498 1496 1494 1491 1488 1486 1483 1481 1479 1476 1473 1471 1469 1468 1466 1465 1463 1460 1458 1456 1454 1452 1449 1447 1445 1442 1440 1438 1437 1435 1434 1432 1431 1430 1429 1428 1427
1501 1501 1501 1500 1500 1498 1496 1493 1490 1487 1484 1481 1479 1477 1474 1471 1469 1468 1466 1465 1463 1460 1458 1455 1453 1450 1448 1445 1442 1440 1437 1435 1433 1430 1429 1427 1425 1424 1423 1422 1421 1420 1419
1500 1500 1500 1499 1498 1496 1493 1490 1487 1484 1481 1477 1475 1472 1469 1467 1465 1464 1462 1461 1459 1456 1453 1450 1447 1444 1441 1438 1435 1432 1429 1427 1424 1422 1420 1419 1417 1416 1415 1413 1412 1411 1410
1499 1499 1499 1498 1496 1493 1490 1487 1484 1481 1478 1474 1470 1465 1464 1463 1460 1459 1459 1457 1454 1451 1448 1444 1441 1438 1434 1431 1428 1424 1421 1419 1416 1414 1412 1411 1409 1407 1406 1405 1403 1402 1401
1498 1498 1497 1495 1493 1490 1487 1484 1481 1478 1475 1471 1467 1462 1458 1456 1455 1455 1452 1450 1448 1445 1441 1438 1434 1431 1427 1423 1420 1417 1413 1410 1408 1406 1405 1403 1401 1399 1397 1395 1394 1393 1391
1496 1496 1494 1493 1490 1487 1484 1481 1478 1476 1473 1470 1467 1464 1460 1454 1448 1444 1444 1442 1440 1437 1434 1431 1427 1424 1420 1416 1413 1409 1406 1403 1400 1398 1396 1394 1392 1390 1388 1385 1384 1382 1381
1494 1493 1492 1490 1488 1485 1482 1480 1477 1474 1471 1467 1465 1462 1461 1456 1451 1441 1436 1434 1432 1429 1426 1423 1420 1417 1413 1409 1406 1403 1399 1396 1393 1390 1387 1385 1382 1380 1377 1375 1373 1371 1369
1492 1491 1490 1488 1485 1483 1480 1478 1475 1472 1468 1465 1462 1458 1455 1452 1449 1443 1432 1426 1424 1422 1419 1416 1413 1409 1406 1402 1399 1395 1391 1387 1384 1381 1378 1375 1373 1370 1367 1364 1362 1359 1357
1490 1489 1487 1485 1483 1480 1478 1475 1472 1469 1465 1462 1458 1455 1451 1448 1443 1438 1429 1420 1415 1412 1411 1408 1405 1402 1398 1395 1391 1387 1383 1378 1375 1371 1368 1365 1362 1359 1356 1353 1350 1348 1345
1488 1486 1484 1482 1480 1477 1474 1472 1468 1465 1461 1458 1454 1450 1447 1444 1440 1434 1426 1415 1407 1402 1400 1399 1397 1395 1392 1388 1384 1379 1375 1371 1366 1362 1359 1355 1352 1348 1345 1341 1339 1336 1334
1485 1483 1481 1479 1477 1474 1471 1468 1465 1461 1457 1453 1449 1445 1442 1438 1434 1429 1422 1413 1400 1391 1391 1390 1388 1386 1383 1380 1376 1372 1367 1363 1358 1354 1349 1345 1340 1336 1333 1330 1327 1324 1322
1482 1480 1478 1476 1474 1471 1467 1464 1460 1456 1452 1448 1444 1439 1435 1431 1426 1422 1417 1412 1405 1390 1378 1379 1379 1376 1374 1370 1367 1363 1358 1354 1349 1344 1338 1333 1329 1325 1321 1318 1315 1312 1309
1479 1478 1476 1473 1470 1467 1463 1459 1455 1451 1447 1442 1438 1433 1429 1424 1419 1414 1409 1405 1401 1393 1379 1370 1369 1367 1363 1361 1358 1354 1348 1343 1338 1333 1327 1321 1317 1313 1309 1305 1303 1299 1297
1477 1475 1472 1470 1467 1463 1459 1454 1450 1445 1441 1436 1432 1427 1422 1417 1412 1407 1402 1398 1394 1389 1378 1365 1361 1357 1353 1349 1344 1341 1337 1332 1326 1321 1316 1310 1305 1300 1296 1293 1289 1286 1283
1474 1471 1469 1466 1462 1458 1454 1449 1444 1440 1435 1430 1426 1421 1416 1411 1406 1401 1396 1390 1386 1382 1375 1363 1354 1349 1344 1339 1334 1329 1325 1321 1315 1309 1303 1298 1293 1288 1284 1280 1276 1273 1269
1471 1468 1465 1462 1458 1453 1449 1444 1439 1434 1430 1425 1421 1416 1411 1405 1399 1394 1389 1384 1379 1374 1369 1360 1350 1343 1336 1331 1324 1318 1313 1307 1302 1297 1291 1286 1281 1276 1271 1267 1263 1259 1255
1467 1465 1461 1458 1453 1448 1443 1438 1433 1428 1424 1420 1416 1411 1406 1400 1394 1388 1383 1378 1373 1367 1360 1352 1343 1336 1329 1323 1317 1308 1299 1294 1289 1285 1279 1274 1270 1264 1259 1254 1249 1245 1241
1464 1461 1457 1453 1448 1443 1438 1433 1428 1423 1419 1414 1410 1405 1400 1395 1390 1385 1379 1373 1366 1359 1352 1345 1336 1329 1322 1315 1309 1301 1292 1283 1277 1274 1267 1262 1257 1250 1244 1239 1235 1230 1227
1460 1457 1452 1448 1443 1438 1433 1428 1423 1418 1413 1408 1403 1398 1394 1388 1383 1378 1373 1366 1361 1354 1345 1338 1330 1322 1314 1308 1301 1294 1285 1276 1265 1264 1258 1249 1246 1238 1232 1227 1221 1218 1214
1456 1452 1448 1443 1438 1433 1428 1423 1418 1413 1408 1403 1398 1392 1387 1382 1377 1369 1362 1357 1352 1347 1341 1334 1324 1316 1308 1301 1294 1286 1279 1271 1261 1255 1250 1238 1234 1227 1220 1214 1209 1205 1201
1452 1448 1443 1438 1433 1428 1423 1418 1413 1407 1402 1397 1393 1387 1381 1374 1369 1363 1356 1349 1342 1336 1331 1325 1318 1309 1302 1295 1289 1281 1272 1262 1253 1248 1243 1232 1223 1216 1208 1202 1196 1191 1187
1448 1444 1439 1434 1429 1424 1418 1413 1408 1401 1396 1391 1387 1382 1376 1370 1363 1357 1350 1341 1334 1327 1322 1316 1309 1302 1295 1287 1281 1273 1265 1257 1246 1238 1234 1227 1215 1206 1197 1189 1183 1179 1174
1443 1439 1435 1430 1424 1419 1414 1409 1404 1398 1391 1384 1379 1375 1370 1364 1357 1351 1344 1335 1327 1319 1313 1305 1299 1292 1285 1278 1273 1267 1260 1252 1242 1232 1225 1220 1209 1202 1187 1177 1172 1167 1160